CZ-6A DEB, 60979

Orbit data source: Space-Track

CZ-6A DEB, 60979 is space debris in LEO originally from a launch on Tue, 06 Aug 2024 UTC launched from the Taiyaun Space Center, China (TSC). Debris objects in space refer to the collection of defunct objects orbiting the Earth. Examples of debris include non-operational satellites, rocket bodies, and fragments generated from explosions, collisions, or faulty payload assembly.

Loading next visibility...
Identifier
60979, 2024-140ME
Orbit
LEO
Country
Flag of CNCN / PRC
Related business
Manufacturer
SAST
Mission
Spacecraft
Bus & Motor
Unknown
Mass
Unknown
Launch date (UTC)
2024-08-06 (2 years ago)
Launch vehicle
Unknown
Launch site
Taiyaun Space Center, China (TSC)
Object type
Payload
Rocket body
Debris
Shape & HBR
Unknown shape, 0.1 m
Radar Cross Section
Medium (>0.1 m² and <1 m²)

Expand to show TLE details & history
Last TLE update: 14 hours ago

TLE from 14 hours ago
0 CZ-6A DEB
1 60979U 24140ME  26171.26535446  .00023427  00000-0  25949-2 0  9993
2 60979  89.0211 270.2356 0056353 194.6527 165.3069 14.86046036 98437
Epoch: 2026-06-20T06:22Z
TLE epoch observation values (Epoch: 2026-06-20T06:22:06.625Z)
Latitude
-0.00008°
Longitude
-93.77446°
Altitude
651.569 km
Speed
7.511 km/s
True Right ascension
18h 00m 56s
True Declination
0° 00' 00"
Sunlit
Object was in full shadow at epoch
Visualization orbit readout
Latitude
Unknown
Longitude
Unknown
Altitude
Unknown
Speed
Unknown
Apparent Right ascension
Unknown
Apparent Declination
Unknown
Sunlit
N/A
Visualization observer readout
Local Sidereal Time
07:19:05
Azimuth
Unknown
Elevation
Unknown
Doppler factor
Unknown
Orbital elements
Apogee altitude
646.526 km
Perigee altitude
567.797 km
Semi-major axis
6,985.298 km
Eccentricity
0.00564
Inclination
89.0211°
RAAN
270.2356°
Arg. of periapsis
194.6527°
True anomaly
165.46958°
Mean anomaly
165.3069°
Eccentric anomaly
165.38835°
Mean motion
3.71763 °/min
Orbital period
96.84 mins
BSTAR
0.0025949
Loading maneuver chart data...
Computing Atmospheric mass density...
Loading historical data...
Loading historical data...
Loading historical data...
Loading historical data...
Loading historical data...
Loading historical data...
Loading historical data...

Documentation

Showing up to 5 results
|